Date,TemperatureHighF,TemperatureAvgF,TemperatureLowF,DewpointHighF,DewpointAvgF,DewpointLowF,HumidityHigh,HumidityAvg,HumidityLow,PressureMaxIn,PressureMinIn,WindSpeedMaxMPH,WindSpeedAvgMPH,GustSpeedMaxMPH,PrecipitationSumIn
2013-1-1,51,46,43,50,39,29,100,78,52,29.99,29.83,0,-999,0,0.15
2013-1-2,51,45,41,50,42,36,100,89,65,30.08,29.81,4,-846,6,0.11
2013-1-3,46,41,34,38,36,30,90,82,63,30.16,30.03,0,-879,0,0.00
2013-1-4,49,39,30,30,24,20,88,59,32,30.22,30.09,4,-640,6,0.00
2013-1-5,49,44,34,30,26,23,65,51,38,30.29,30.16,1,-565,6,0.00
2013-1-6,51,44,40,38,36,29,85,72,60,30.16,29.94,0,-896,1,0.00
2013-1-7,50,45,37,32,30,28,75,58,45,30.33,30.23,4,-542,7,0.00
2013-1-8,54,45,36,41,35,31,84,69,51,30.36,30.26,0,-788,0,0.00
2013-1-10,63,60,53,47,43,39,74,54,45,30.42,30.32,4,-387,6,0.00
2013-1-11,50,47,41,50,45,-100,100,97,94,30.25,30.05,0,-999,0,0.12
2013-1-12,57,52,49,57,52,49,100,100,100,30.06,30.01,0,-999,0,0.00
2013-1-13,74,67,62,62,59,58,100,76,59,30.02,29.93,2,-579,6,0.00
2013-1-14,69,63,58,64,59,56,92,86,77,30.03,29.96,0,-987,0,0.00
2013-1-15,64,47,44,61,46,44,100,98,88,30.11,29.95,0,-999,0,0.00
2013-1-16,50,46,42,50,46,42,100,100,98,29.97,29.87,0,-999,0,0.12
2013-1-17,50,46,33,50,45,32,100,99,93,30.06,29.75,0,-999,0,0.95
2013-1-18,43,37,32,33,28,22,100,72,45,30.43,30.04,6,-688,7,0.01
2013-1-19,51,44,40,33,26,-100,74,54,42,30.14,30.05,0,-999,0,0.00
2013-1-20,63,49,38,36,32,28,75,54,32,30.05,29.87,0,-673,0,0.00
2013-1-21,48,46,41,30,25,18,51,44,36,29.97,29.81,0,-999,0,0.00
2013-1-22,41,34,28,20,5,-2,48,30,19,30.18,29.85,0,-686,0,0.00
2013-1-23,40,31,24,19,8,-2,65,38,29,30.25,29.96,0,-842,0,0.00
2013-1-24,37,32,25,25,11,-1,70,45,24,30.41,29.86,10,-681,18,0.00
2013-1-25,28,25,23,25,14,4,90,65,40,30.43,30.02,0,-999,0,0.27
2013-1-26,40,32,26,32,28,23,92,84,63,30.31,30.00,1,-732,1,0.00
2013-1-27,40,34,25,28,26,21,92,75,53,30.50,30.30,1,-635,1,0.00
2013-1-28,51,41,33,44,34,28,88,77,60,30.40,30.16,0,-857,0,0.00
2013-2-2,44,40,28,36,16,8,78,38,26,30.30,29.93,1,-530,1,0.00
2013-2-3,49,42,35,36,29,22,85,62,40,29.93,29.74,8,-656,8,0.00
2013-2-4,48,40,31,27,23,18,70,51,32,30.04,29.88,185,-696,185,0.00
2013-2-5,61,48,38,34,31,27,72,55,32,29.92,29.76,2,-673,6,0.00
2013-2-6,48,46,45,33,33,32,63,59,54,29.87,29.85,0,-999,0,0.00
2013-2-7,42,42,42,42,41,41,97,96,95,29.97,29.88,0,-999,0,0.23
2013-2-8,55,45,38,45,39,28,97,81,55,29.95,29.71,6,-741,7,0.40
2013-2-9,51,43,32,29,21,15,75,45,24,30.25,29.95,8,-651,13,0.00
2013-2-10,54,43,32,41,23,16,91,47,27,30.38,30.10,1,-717,7,0.03
2013-2-11,62,58,44,59,56,41,100,93,87,30.10,29.81,0,-999,0,0.05
2013-2-12,60,53,45,53,35,24,93,56,26,29.97,29.79,8,-695,8,0.00
2013-2-13,52,46,43,46,42,30,95,88,42,29.84,29.53,0,-999,0,0.12
2013-2-14,52,44,34,35,32,30,87,63,45,29.96,29.88,0,-526,0,0.00
2013-2-15,62,48,35,37,32,28,87,58,29,29.98,29.82,0,-647,0,0.00
2013-2-16,46,34,29,35,31,24,94,89,64,29.85,29.73,0,-999,0,0.18
2013-2-17,37,30,24,24,15,7,82,56,29,30.10,29.82,7,-597,13,0.00
2013-2-18,53,42,27,26,20,10,66,43,26,30.31,30.15,1,-537,2,0.00
2013-2-19,50,41,33,48,36,26,95,84,66,30.15,29.76,0,-999,0,0.16
2013-2-21,46,45,44,24,21,19,44,39,33,30.14,30.08,0,-999,0,0.00
2013-2-22,44,36,33,35,31,-100,95,85,41,30.24,30.05,0,-999,0,0.29
2013-2-23,43,41,38,42,40,36,97,95,93,29.89,29.72,0,-999,0,0.51
2013-2-24,62,50,43,45,38,26,100,70,27,29.89,29.70,6,-574,9,0.05
2013-2-25,42,38,33,27,23,20,66,57,46,30.12,29.95,4,-763,7,0.00
2013-2-26,58,44,34,58,40,25,100,89,61,30.03,29.45,0,-999,0,0.55
2013-2-27,60,50,43,44,39,35,97,68,44,29.68,29.52,4,-550,8,0.00
2013-2-28,50,43,37,38,31,24,83,63,37,29.75,29.59,8,-839,10,0.00
2013-3-1,48,40,32,30,27,25,79,60,43,29.81,29.74,7,-776,11,0.00
2013-3-2,48,40,31,27,24,18,70,54,39,29.82,29.70,6,-711,9,0.00
2013-3-3,46,36,29,21,18,16,63,50,35,29.88,29.75,8,-630,9,0.00
2013-3-4,51,40,26,18,14,-100,66,37,22,30.01,29.88,6,-511,9,0.00
2013-3-5,48,44,41,44,31,18,100,66,37,29.96,29.54,0,-926,0,0.07
2013-3-6,46,42,36,34,28,25,90,60,48,29.93,29.51,11,-602,16,0.00
2013-3-7,52,42,34,31,28,25,76,60,42,30.13,29.93,8,-624,13,0.00
2013-3-8,55,47,34,26,24,19,67,42,27,30.17,30.04,9,-701,13,0.00
2013-3-9,63,48,33,29,26,24,72,45,25,30.23,30.12,4,-602,9,0.00
2013-3-10,67,54,42,33,28,22,63,38,20,30.20,30.09,2,-594,8,0.00
2013-3-11,69,55,42,52,42,23,83,63,39,30.12,29.81,1,-744,4,0.00
2013-3-12,58,58,57,54,53,52,91,84,80,29.82,29.76,0,-999,0,0.00
2013-3-13,57,48,37,32,24,19,75,40,25,30.02,29.84,9,-423,13,0.00
2013-3-14,54,40,28,20,18,15,65,42,24,30.14,30.01,6,-608,10,0.00
2013-3-15,62,46,34,35,26,16,58,45,30,30.07,29.78,4,-914,7,0.00
2013-3-16,80,62,48,50,43,35,69,52,31,29.78,29.54,5,-716,10,0.00
2013-3-17,65,52,41,51,42,37,91,71,59,30.05,29.71,6,-813,7,0.00
2013-3-18,42,39,37,42,39,37,100,99,91,30.09,29.73,0,-999,0,0.43
2013-3-19,66,51,40,43,33,13,100,62,19,29.90,29.71,7,-780,8,0.00
2013-3-20,57,47,40,22,14,8,49,27,19,30.00,29.68,3,-669,6,0.00
2013-3-21,45,41,38,31,28,22,72,59,48,29.69,29.62,0,-999,0,0.00
2013-3-23,55,48,41,30,24,18,61,41,31,29.94,29.80,0,-604,0,0.00
2013-3-24,43,40,38,37,33,-100,96,79,55,29.83,29.47,0,-999,0,0.59
2013-3-25,49,43,37,34,26,22,60,50,41,29.71,29.48,7,-626,9,0.00
2013-3-26,48,40,32,29,26,23,75,57,43,30.01,29.71,5,-695,8,0.00
2013-3-27,52,43,32,27,23,18,77,47,28,30.12,30.01,8,-547,16,0.00
2013-3-28,56,44,31,27,23,20,71,45,27,30.18,30.04,7,-583,11,0.00
2013-3-29,60,50,36,29,24,21,62,39,23,30.23,30.07,5,-583,9,0.00
2013-3-30,65,55,45,43,35,24,74,48,26,30.13,29.96,4,-646,6,0.00
2013-3-31,68,56,48,59,50,-100,100,84,63,29.98,29.69,8,-706,8,0.66
2013-4-1,73,60,53,56,47,36,100,68,28,29.83,29.69,7,-651,10,0.02
2013-4-2,61,53,39,38,26,18,63,37,23,30.04,29.83,6,-480,11,0.00
2013-4-3,60,50,41,23,19,16,44,30,21,30.18,30.01,6,-615,8,0.00
2013-4-4,50,45,41,28,23,21,59,43,33,30.18,30.15,0,-999,0,0.00
2013-4-5,63,53,38,48,42,35,100,69,45,29.90,29.78,5,-562,8,0.01
2013-4-6,66,55,46,39,31,23,66,43,25,30.15,29.90,4,-628,8,0.00
2013-4-7,74,63,44,43,40,36,72,45,27,30.15,29.99,3,-508,8,0.00
2013-4-8,81,71,55,56,53,50,95,55,34,30.06,29.92,4,-456,8,0.00
2013-4-9,86,71,58,60,56,52,93,63,32,30.07,29.93,3,-648,7,0.00
2013-4-10,68,65,62,57,56,55,80,73,68,29.95,29.92,0,-999,0,0.00
2013-4-11,82,76,70,65,61,58,82,61,45,29.73,29.67,1,-827,2,0.00
2013-4-12,82,71,63,70,63,48,100,79,48,29.69,29.48,2,-734,6,0.62
2013-4-13,75,67,56,50,41,37,68,41,25,29.88,29.65,2,-653,6,0.00
2013-4-14,83,66,53,55,43,35,74,46,21,29.98,29.88,1,-708,4,0.00
2013-4-15,71,65,58,58,56,53,95,74,60,30.08,29.87,1,-763,1,0.05
2013-4-16,75,66,59,60,58,56,95,78,52,30.18,30.08,0,-686,4,0.00
2013-4-17,80,75,69,65,63,62,79,68,56,30.05,29.98,0,-623,0,0.00
2013-4-18,81,69,60,63,59,-100,100,74,47,30.08,29.92,2,-668,4,0.00
2013-4-19,81,71,64,68,65,61,100,84,60,29.93,29.59,4,-725,8,0.57
2013-4-20,64,54,47,64,41,31,100,64,34,30.16,29.69,2,-688,6,0.04
2013-4-21,61,55,48,43,40,38,81,59,45,30.36,30.16,4,-725,4,0.00
2013-4-22,61,50,37,45,37,32,88,64,39,30.35,30.15,4,-684,7,0.00
2013-4-23,65,54,46,51,47,43,92,76,53,30.17,30.01,1,-668,2,0.02
2013-4-24,76,64,51,58,54,49,97,73,49,30.04,29.86,1,-628,4,0.00
2013-4-25,70,61,52,56,45,39,86,58,34,30.15,29.89,1,-675,4,0.00
2013-4-26,72,63,48,48,39,32,79,44,25,30.31,30.15,1,-556,4,0.00
2013-4-27,74,61,53,52,47,42,78,60,33,30.26,30.14,0,-697,4,0.00
2013-4-28,59,56,52,56,54,48,100,90,75,30.15,29.99,2,-924,2,0.70
2013-4-29,68,60,56,65,59,56,100,98,79,29.99,29.85,0,-724,0,0.31
2013-5-1,60,58,56,58,56,55,96,93,89,30.20,30.04,1,-966,1,0.00
2013-5-2,62,58,56,57,55,52,100,90,82,30.21,30.15,0,-880,0,0.00
2013-5-3,67,58,49,54,51,46,95,80,59,30.15,30.05,1,-632,4,0.00
2013-5-5,58,56,50,56,52,46,94,89,85,29.95,29.86,1,-966,1,0.01
2013-5-6,63,59,56,63,59,55,100,99,90,29.88,29.72,0,-868,0,0.92
2013-5-7,69,58,52,59,54,49,100,89,54,29.84,29.74,0,-732,1,0.00
2013-5-8,55,55,54,53,53,52,94,93,92,29.84,29.82,0,-999,0,0.00
2013-5-9,67,66,65,58,57,56,73,72,72,29.94,29.93,0,-999,0,0.00
2013-5-10,84,72,61,65,60,55,84,68,43,29.94,29.83,0,-668,0,0.00
2013-5-11,81,71,65,65,62,59,96,75,53,29.84,29.68,0,-612,1,0.05
2013-5-12,72,64,56,64,51,36,95,65,38,29.91,29.67,2,-654,6,0.00
2013-5-13,66,56,46,41,37,31,78,50,29,30.04,29.91,2,-567,4,0.00
2013-5-15,86,73,54,65,59,47,80,62,42,29.95,29.79,0,-578,1,0.00
2013-5-16,84,73,65,66,62,59,84,68,43,29.86,29.77,185,-661,185,0.00
2013-5-17,88,74,64,64,62,60,90,68,40,29.96,29.86,0,-691,2,0.00
2013-5-18,76,70,64,71,63,-100,100,83,69,30.03,29.94,0,-796,0,0.62
2013-5-19,75,69,64,71,68,64,100,97,83,30.03,29.93,0,-712,0,1.09
2013-5-20,72,68,66,72,68,66,100,100,100,29.99,29.91,0,-866,2,0.22
2013-5-21,68,68,68,68,67,67,99,98,97,29.88,29.87,0,-999,0,0.08
2013-5-22,82,72,68,72,69,67,100,92,68,29.92,29.80,0,-728,0,0.00
2013-5-23,79,70,67,70,68,65,100,93,71,29.84,29.70,0,-958,0,0.15
2013-5-24,68,64,55,65,54,39,100,74,42,30.07,29.70,4,-678,7,0.01
2013-5-25,72,62,50,51,43,35,73,50,29,30.16,30.02,0,-607,1,0.00
2013-5-26,72,62,53,54,46,36,77,56,41,30.16,30.06,1,-715,2,0.00
2013-5-27,80,71,60,58,55,50,75,57,38,30.16,30.04,1,-587,1,0.00
2013-5-28,84,70,60,68,62,54,96,77,55,30.14,30.03,0,-648,0,0.00
2013-5-29,86,73,64,68,64,61,95,74,50,30.13,30.04,0,-639,0,0.00
2013-5-30,86,73,63,68,64,61,96,75,49,30.16,30.06,0,-706,0,0.00
2013-5-31,88,77,66,72,67,64,95,73,50,30.11,29.98,0,-531,4,0.00
2013-6-1,86,75,67,69,67,65,95,78,51,30.02,29.90,0,-664,2,0.00
2013-6-2,75,72,69,70,67,64,94,84,79,29.94,29.79,0,-999,0,0.12
2013-6-3,78,72,66,75,70,64,100,95,72,29.84,29.71,0,-731,0,0.41
2013-6-4,66,66,65,66,66,65,100,100,100,29.89,29.81,0,-999,0,0.00
2013-6-5,77,72,65,66,62,60,93,71,57,30.02,29.90,0,-534,1,0.00
2013-6-6,73,70,65,73,66,60,100,91,70,29.91,29.70,0,-973,0,0.40
2013-6-7,71,69,68,71,69,68,100,100,100,29.72,29.41,0,-999,0,1.54
2013-6-8,69,68,67,69,68,67,100,100,100,29.74,29.69,0,-999,0,0.05
2013-6-9,74,73,72,70,70,70,94,92,88,29.99,29.98,0,-999,0,0.00
2013-6-10,78,73,71,78,73,70,100,99,91,29.98,29.78,2,-798,2,0.77
2013-6-11,84,74,68,70,69,66,100,84,58,29.84,29.78,0,-648,0,0.00
2013-6-12,90,76,67,76,70,64,93,82,57,29.86,29.74,0,-701,0,0.00
2013-6-13,78,71,67,74,70,67,100,95,85,29.74,29.56,0,-999,0,0.09
2013-6-14,78,70,61,67,60,57,100,74,51,29.89,29.61,0,-666,0,0.00
2013-6-15,85,72,60,66,62,56,92,73,48,30.01,29.89,0,-659,0,0.00
2013-6-16,85,76,66,71,68,59,87,74,59,29.98,29.89,0,-650,0,0.00
2013-6-17,82,74,69,73,69,65,91,84,70,29.91,29.82,0,-752,0,0.00
2013-6-18,80,73,69,74,70,68,100,92,77,29.86,29.64,0,-765,0,0.56
2013-6-19,80,71,66,69,67,66,100,88,65,30.00,29.75,0,-664,0,0.01
2013-6-20,69,67,66,66,66,65,100,95,93,30.03,30.00,0,-999,0,0.00
2013-6-22,79,74,70,71,70,68,94,87,74,30.09,29.99,0,-666,0,0.01
2013-6-23,82,74,69,74,71,68,100,91,73,30.09,30.01,0,-714,0,0.02
2013-6-24,83,77,71,76,73,68,100,88,78,30.09,29.97,0,-577,0,0.04
2013-6-25,87,75,69,76,71,68,100,88,66,30.02,29.89,0,-706,0,0.00
2013-6-26,90,77,69,76,72,67,100,85,61,29.90,29.77,0,-496,0,0.34
2013-6-27,86,75,67,77,72,67,100,92,73,29.82,29.60,0,-682,0,0.00
2013-6-28,90,78,70,77,73,69,100,86,60,29.64,29.46,0,-550,0,1.04
2013-6-29,80,74,69,76,72,69,100,96,81,29.61,29.48,0,-722,0,0.30
2013-6-30,74,73,71,74,73,71,100,100,100,29.67,29.59,0,-999,0,1.55
2013-7-6,78,75,72,74,73,70,94,91,87,30.08,30.02,0,-999,0,0.03
2013-7-7,87,76,69,78,73,68,100,90,69,30.08,29.94,2,-710,2,0.00
2013-7-8,86,77,72,76,73,71,100,89,69,30.06,29.97,0,-719,0,0.00
2013-7-9,72,72,72,72,71,70,100,96,95,30.03,30.02,0,-999,0,0.00
2013-7-10,77,74,73,76,72,71,96,94,91,29.88,29.86,0,-999,0,0.18
2013-7-11,77,74,72,76,74,72,100,99,92,29.87,29.76,0,-887,0,0.17
2013-7-12,74,72,70,74,71,69,100,96,88,29.91,29.75,0,-894,0,0.01
2013-7-13,75,72,70,75,72,69,100,99,95,30.05,29.89,0,-951,0,0.12
2013-7-14,87,75,71,77,72,-100,100,93,65,30.17,30.05,1,-696,1,0.27
2013-7-15,86,79,72,76,73,72,100,85,66,30.20,30.12,0,-671,0,0.00
2013-7-16,91,79,72,78,73,71,100,83,56,30.16,30.06,0,-732,0,0.00
2013-7-17,78,78,77,75,75,75,94,93,91,30.08,30.05,0,-999,0,0.00
2013-7-18,91,83,76,79,76,73,95,80,60,30.01,29.91,0,-496,0,0.00
2013-7-19,88,79,75,78,75,72,100,88,71,29.98,29.86,0,-696,0,0.00
2013-7-20,84,79,75,78,75,73,100,89,76,29.91,29.80,0,-611,0,0.14
2013-7-21,85,76,72,78,74,72,100,94,73,29.88,29.78,0,-739,0,0.02
2013-7-22,83,76,72,76,74,72,100,94,79,29.83,29.72,0,-675,0,0.01
2013-7-23,86,78,73,76,74,72,100,88,66,29.73,29.61,0,-688,0,0.02
2013-7-24,76,74,72,73,71,70,94,92,86,29.66,29.61,0,-999,0,0.00
2013-7-26,85,76,66,70,67,64,95,75,53,29.99,29.91,0,-578,0,0.00
2013-7-27,84,72,67,73,69,67,100,91,64,29.93,29.82,0,-760,0,0.32
2013-7-28,84,78,72,75,73,72,100,87,72,29.88,29.81,0,-526,0,0.02
2013-7-29,83,74,69,74,68,64,100,84,55,30.03,29.87,0,-718,0,0.01
2013-7-30,84,75,64,71,65,-100,88,73,53,30.10,30.01,0,-646,0,0.00
2013-7-31,80,76,70,75,72,68,100,88,80,30.03,29.88,0,-808,0,0.22
2013-8-1,79,61,70,77,44,-100,100,95,83,29.89,29.74,0,-830,0,0.50
2013-8-2,86,75,68,74,70,68,100,86,60,29.90,29.79,0,-674,0,0.01
2013-8-3,86,77,73,78,74,71,100,92,73,29.89,29.79,8,-734,8,0.34
2013-8-4,82,76,70,74,67,63,100,74,59,29.91,29.80,0,-663,0,0.00
2013-8-5,82,72,66,70,66,63,91,81,57,29.97,29.88,0,-709,0,0.00
2013-8-6,79,72,66,73,69,65,100,90,74,29.94,29.87,0,-678,0,0.37
2013-8-7,82,75,69,74,70,68,98,87,71,29.98,29.91,0,-701,0,0.00
2013-8-8,85,78,71,76,73,71,100,85,68,29.95,29.87,0,-592,0,0.00
2013-8-9,87,78,73,79,74,72,100,90,74,29.93,29.86,0,-712,0,0.00
2013-8-10,90,79,72,79,75,71,100,90,67,29.97,29.89,0,-612,0,0.06
2013-8-11,90,78,71,78,74,71,100,89,62,29.99,29.88,0,-694,0,0.01
2013-8-12,78,78,78,75,75,75,92,92,92,29.91,29.91,0,-999,0,0.00
2013-8-17,70,69,69,70,69,69,100,100,100,30.03,30.00,0,-999,0,0.25
2013-8-18,77,71,68,72,69,66,100,94,78,30.09,29.99,0,-748,0,0.04
2013-8-19,72,69,66,72,68,65,100,99,95,30.08,29.98,0,-999,0,0.18
2013-8-20,75,71,68,74,71,68,100,98,91,30.07,29.99,0,-859,0,0.00
2013-8-21,86,74,70,81,73,69,100,97,73,30.10,29.98,0,-760,0,0.20
2013-8-22,83,75,70,74,72,70,100,91,72,30.03,29.87,0,-971,0,0.01
2013-8-23,85,75,68,76,71,66,100,89,65,29.94,29.81,0,-742,0,0.00
2013-8-24,81,74,68,66,62,59,92,69,50,30.18,29.94,0,-648,0,0.00
2013-8-25,77,69,62,64,61,58,100,78,54,30.27,30.17,0,-670,0,0.00
2013-8-26,80,70,58,64,60,57,98,74,51,30.20,30.00,0,-655,0,0.00
2013-8-27,85,74,64,73,67,57,93,80,65,30.01,29.85,0,-713,0,0.00
2013-8-28,74,74,74,72,72,72,94,93,93,29.86,29.85,0,-999,0,0.00
2013-8-29,76,75,74,72,71,70,90,88,86,29.88,29.87,0,-999,0,0.00
2013-8-30,86,74,67,70,68,66,100,83,56,29.94,29.83,0,-721,0,0.00
2013-8-31,84,76,68,74,71,67,100,87,71,29.85,29.74,0,-718,0,0.00
2013-9-1,87,76,70,78,73,70,100,91,67,29.78,29.65,0,-728,0,0.96
2013-9-2,83,77,70,77,74,70,100,91,76,29.78,29.68,0,-626,0,0.01
2013-9-3,86,78,73,76,73,70,100,87,63,29.81,29.68,0,-738,0,0.00
2013-9-4,83,76,66,73,70,62,100,81,65,29.96,29.81,0,-622,0,0.00
2013-9-5,85,74,66,70,66,59,100,77,46,29.98,29.91,0,-693,0,0.00
2013-9-6,80,73,64,65,61,56,85,67,52,30.06,29.95,0,-596,0,0.00
2013-9-7,80,70,61,67,63,60,100,80,58,30.02,29.86,0,-706,0,0.00
2013-9-8,84,74,66,67,64,58,95,73,42,29.86,29.79,0,-711,0,0.00
2013-9-9,86,77,69,71,68,65,92,75,53,30.00,29.86,0,-668,0,0.00
2013-9-10,87,78,70,72,69,66,100,76,53,30.11,30.02,0,-584,0,0.00
2013-9-11,86,77,70,72,69,66,92,78,56,30.09,29.96,0,-662,0,0.00
2013-9-12,87,76,69,73,70,66,94,81,61,29.96,29.69,0,-695,0,0.00
2013-9-13,74,73,73,70,70,70,90,90,90,29.69,29.68,0,-999,0,0.00
2013-9-14,64,64,63,56,55,54,76,74,70,30.01,30.01,0,-999,0,0.00
2013-9-15,78,67,56,63,59,53,93,76,51,30.12,30.00,0,-697,0,0.00
2013-9-16,81,72,65,73,65,59,100,81,50,30.07,29.92,0,-760,0,0.06
2013-9-17,75,67,60,58,54,50,85,66,44,30.19,30.07,0,-689,0,0.00
2013-9-18,60,58,55,53,52,52,87,81,74,30.17,30.15,0,-999,0,0.00
2013-9-21,75,71,66,72,70,66,100,97,90,29.75,29.62,0,-772,0,0.85
2013-9-22,73,66,62,65,61,57,100,85,63,29.79,29.59,1,-710,2,0.37
2013-9-23,68,62,54,58,55,51,91,77,61,29.96,29.79,0,-718,0,0.00
2013-9-24,64,60,58,59,56,55,92,87,84,29.96,29.84,0,-999,0,0.00
2013-9-25,70,64,57,63,60,57,100,88,69,29.85,29.76,0,-842,0,0.00
2013-9-26,64,62,59,62,60,57,98,94,88,29.79,29.76,0,-999,0,0.00
2013-9-27,71,66,60,59,55,-100,86,71,61,30.08,29.99,0,-697,0,0.00
2013-9-28,69,61,53,57,55,52,100,80,60,30.14,30.05,1,-661,2,0.00
2013-9-29,69,63,55,58,55,53,100,75,56,30.06,29.92,0,-643,0,0.00
2013-9-30,72,63,54,61,56,52,100,81,56,29.99,29.88,0,-722,0,0.00
2013-10-1,78,67,56,64,59,54,93,77,56,30.01,29.91,0,-687,0,0.00
2013-10-2,80,71,60,65,61,59,96,72,52,30.02,29.93,0,-676,0,0.00
2013-10-3,80,71,62,67,63,60,92,77,59,30.01,29.94,0,-711,0,0.00
2013-10-4,82,72,64,68,65,62,95,80,55,30.02,29.93,0,-738,0,0.00
2013-10-5,78,69,66,67,64,62,91,85,69,29.99,29.91,0,-999,0,0.00
2013-10-6,79,70,65,71,68,64,100,92,72,29.95,29.82,0,-870,0,0.00
2013-10-7,72,69,63,71,69,58,100,98,85,29.87,29.73,0,-999,0,1.26
2013-10-8,63,59,58,58,51,47,85,73,66,30.07,29.86,0,-999,0,0.00
2013-10-12,67,65,62,66,64,61,100,96,89,29.97,29.89,0,-871,0,0.01
2013-10-13,66,63,61,64,62,61,100,98,93,30.07,29.96,0,-999,0,0.00
2013-10-14,63,61,57,62,60,57,100,98,93,30.12,30.06,0,-990,0,0.06
2013-10-15,69,64,55,62,59,55,100,86,70,30.09,29.94,0,-820,0,0.00
2013-10-16,67,64,62,63,62,61,100,93,82,29.95,29.84,0,-988,0,0.00
2013-10-17,72,66,61,67,64,61,100,94,78,29.85,29.73,0,-892,0,0.00
2013-10-18,67,62,56,66,55,-100,100,81,63,29.92,29.76,0,-901,0,0.00
2013-10-19,68,61,58,64,58,54,100,93,85,29.87,29.70,0,-988,0,0.01
2013-10-20,61,55,48,59,47,40,100,76,50,30.01,29.79,0,-789,0,0.00
2013-10-21,64,58,50,53,49,44,93,73,53,30.05,29.90,0,-620,0,0.00
2013-10-22,63,57,54,60,54,50,100,89,85,29.90,29.69,0,-999,0,0.00
2013-10-23,64,57,46,58,49,34,100,77,39,29.90,29.58,0,-849,0,0.01
2013-10-24,56,47,38,41,36,33,85,68,45,30.07,29.90,0,-761,0,0.00
2013-10-25,53,47,39,36,32,28,77,57,38,30.26,30.06,2,-748,4,0.00
2013-10-26,57,44,35,40,33,29,83,66,41,30.26,29.99,0,-792,0,0.00
2013-10-29,69,65,60,58,56,54,84,73,63,30.18,30.14,0,-958,0,0.00
2013-10-30,71,62,56,61,57,54,94,83,66,30.18,30.04,0,-855,0,0.00
2013-10-31,65,65,64,61,58,57,87,81,77,29.86,29.82,0,-999,0,0.00
2013-11-1,70,67,62,68,65,61,100,92,83,29.82,29.57,0,-990,0,0.84
2013-11-2,67,62,54,58,49,42,100,65,44,29.83,29.63,1,-642,2,0.00
2013-11-3,61,53,46,42,39,36,77,59,42,30.25,29.83,4,-786,6,0.00
2013-11-4,54,46,41,38,33,31,75,61,42,30.44,30.25,1,-785,4,0.00
2013-11-5,56,51,40,50,43,32,85,75,66,30.43,30.31,1,-789,2,0.00
2013-11-6,68,57,46,56,50,44,93,79,61,30.31,30.08,0,-751,0,0.00
2013-11-7,67,59,47,60,48,34,78,66,53,29.99,29.81,0,-999,0,0.00
2013-11-8,55,47,40,34,29,25,73,51,32,30.21,29.98,4,-774,6,0.00
2013-11-9,58,48,35,39,32,26,79,56,33,30.26,30.08,0,-788,4,0.00
2013-11-10,70,56,42,40,35,27,80,49,27,30.11,29.95,4,-798,6,0.00
2013-11-11,57,49,41,35,30,26,64,49,34,30.24,30.03,1,-786,4,0.00
2013-11-12,60,46,35,39,35,31,92,67,42,30.29,29.94,4,-800,8,0.02
2013-11-13,43,38,31,24,19,16,64,47,35,30.43,30.36,4,-623,4,0.00
2013-11-14,55,42,30,28,24,20,74,51,27,30.37,30.23,1,-772,8,0.00
2013-11-15,60,50,38,50,36,23,83,61,43,30.25,30.10,0,-852,0,0.00
2013-11-16,54,53,51,50,48,47,90,86,81,30.12,30.09,0,-999,0,0.00
2013-11-17,71,64,55,65,60,55,100,89,70,30.06,29.78,0,-840,0,0.06
2013-11-18,73,65,54,67,54,31,100,71,36,29.85,29.68,6,-836,6,0.02
2013-11-19,54,49,43,31,28,26,60,46,34,30.19,29.85,7,-707,9,0.00
2013-11-20,52,44,37,37,31,27,81,61,48,30.34,30.19,2,-725,7,0.00
2013-11-21,59,49,42,48,42,36,82,75,62,30.39,30.28,1,-775,4,0.00
2013-11-22,70,59,48,60,53,44,95,80,70,30.28,29.97,2,-759,4,0.01
2013-11-23,59,53,42,48,34,20,66,49,35,30.06,29.92,0,-999,0,0.01
2013-11-24,42,33,27,24,8,-100,51,36,24,30.45,30.06,8,-720,10,0.00
2013-11-25,42,33,24,20,11,5,62,41,25,30.49,30.27,0,-690,0,0.00
2013-11-26,63,44,37,63,34,13,100,73,37,30.27,29.48,0,-999,0,0.82
2013-11-27,46,38,28,46,34,20,100,86,61,30.07,29.41,0,-999,0,0.20
2013-11-28,42,32,24,23,18,15,80,59,40,30.33,30.07,2,-575,6,0.00
2013-11-29,48,41,34,27,25,24,70,54,39,30.52,30.42,1,-902,1,0.00
2013-11-30,47,37,30,32,27,22,77,68,56,30.53,30.26,4,-673,6,0.00
2013-12-1,58,47,32,42,35,28,87,65,40,30.26,29.91,0,-646,4,0.00
2013-12-2,59,50,44,44,41,39,84,73,54,29.91,29.70,1,-777,1,0.00
2013-12-3,55,49,42,47,43,40,93,82,69,29.86,29.76,0,-848,0,0.00
2013-12-6,77,69,63,65,63,61,98,83,63,29.95,29.85,6,-711,9,0.00
2013-12-7,68,49,42,65,45,34,96,84,70,30.34,29.87,2,-978,4,0.18
2013-12-8,43,36,33,34,32,29,96,85,61,30.35,30.19,0,-993,0,0.00
2013-12-9,46,39,34,45,38,33,100,95,92,30.19,29.98,0,-999,0,0.11
2013-12-10,47,43,34,46,37,23,100,81,56,30.22,29.81,6,-835,6,0.26
2013-12-11,48,38,29,30,24,19,76,57,40,30.36,30.18,2,-648,2,0.00
2013-12-12,42,37,32,28,20,10,74,51,34,30.32,30.17,7,-725,9,0.00
2013-12-13,50,40,30,28,19,9,57,44,29,30.29,30.16,2,-723,4,0.00
2013-12-14,46,42,39,44,39,27,100,88,56,30.19,29.67,0,-991,0,0.69
2013-12-15,52,44,38,43,38,30,100,81,54,29.93,29.60,7,-661,8,0.01
2013-12-16,54,47,34,36,34,28,80,62,46,30.08,29.99,1,-483,4,0.00
2013-12-17,59,48,36,39,36,31,87,64,44,30.01,29.78,4,-686,4,0.00
2013-12-18,48,43,37,32,20,15,59,41,27,30.19,29.91,9,-674,9,0.00
2013-12-19,61,49,35,31,26,19,63,42,24,30.22,30.11,2,-584,4,0.00
2013-12-20,65,54,44,53,44,31,83,70,55,30.14,30.01,3,-692,6,0.00
2013-12-21,73,60,50,65,54,-100,94,83,62,30.04,29.92,3,-757,4,0.00
2013-12-22,78,70,64,66,64,61,100,84,63,29.97,29.89,6,-844,8,0.12
2013-12-23,66,60,46,66,58,37,100,96,70,30.04,29.86,0,-999,0,1.10
2013-12-24,46,42,39,37,31,21,75,64,44,30.20,30.01,7,-599,9,0.00
2013-12-25,34,31,29,19,17,11,64,56,37,30.33,30.29,0,-999,0,0.00
2013-12-26,51,39,30,30,25,19,87,60,36,30.29,30.14,3,-786,6,0.00
2013-12-27,51,43,35,24,20,17,53,41,27,30.36,30.25,2,-642,2,0.00
2013-12-28,58,47,35,32,26,22,61,46,27,30.30,30.05,1,-730,4,0.00
2013-12-29,57,50,45,57,47,30,100,90,44,30.05,29.60,4,-883,6,1.56
2013-12-30,53,47,40,44,39,-100,95,78,64,30.02,29.81,2,-804,2,0.00
2013-12-31,50,43,36,36,29,-100,87,60,35,30.25,30.00,4,-731,6,0.00
2014-1-1,50,41,33,31,26,21,84,56,34,30.31,30.04,1,-743,2,0.00
2014-1-2,48,45,41,45,39,29,95,81,61,30.05,29.48,0,-999,0,0.19